CT2IRK-11 Weather Reports


time (UTC)temp
C
wind
direction
speed
KPH
gust
KPH
rain 1hr
cm
rain 24hr
cm
rain mn
cm
humidity
%
barometer
mb
20260504015005 11 180 0.0 1.6 0.00 0.00 0.00 97 1008.4
20260504013005 11 192 0.0 4.8 0.00 0.00 0.00 97 1008.5
20260504012005 11 225 0.0 0.0 0.00 0.00 0.00 97 1008.6
20260504011005 11 202 0.0 0.0 0.00 0.00 0.00 97 1008.6
20260504010005 11 147 0.0 0.0 0.00 0.00 0.00 96 1008.7
20260504005005 12 180 0.0 0.0 0.00 0.00 0.00 95 1008.6
20260504004005 12 170 0.0 4.8 0.00 0.00 0.00 95 1008.6
20260504003005 11 205 0.0 3.2 0.00 0.00 0.00 95 1008.7
20260504002005 11 135 0.0 0.0 0.00 0.00 0.00 94 1008.7
20260504001007 12 158 0.0 0.0 0.00 0.00 0.00 94 1008.7
20260504000005 12 158 0.0 0.0 0.00 0.00 0.00 94 1008.8
20260503235005 12 88 0.0 0.0 0.00 0.00 0.00 92 1008.8
20260503234005 12 158 0.0 0.0 0.00 0.00 0.00 91 1008.8
20260503233005 12 158 0.0 0.0 0.00 0.00 0.00 92 1008.7
20260503232007 12 112 0.0 0.0 0.00 0.00 0.00 90 1008.7
20260503231006 12 158 0.0 0.0 0.00 0.00 0.00 91 1008.8
20260503230006 12 112 0.0 0.0 0.00 0.00 0.00 90 1008.7
20260503225006 12 112 0.0 0.0 0.00 0.00 0.00 90 1008.8
20260503224005 13 112 0.0 0.0 0.00 0.00 0.00 89 1008.8
20260503223005 13 292 0.0 0.0 0.00 0.00 0.00 89 1008.7
20260503222005 13 278 0.0 0.0 0.00 0.00 0.00 89 1008.7
20260503221005 13 261 0.0 0.0 0.00 0.00 0.00 89 1008.7
20260503220005 13 279 0.0 0.0 0.00 0.00 0.00 86 1008.7
20260503214010 14 347 0.0 0.0 0.00 0.00 0.00 84 1008.6
20260503213005 14 352 0.0 0.0 0.00 0.00 0.00 83 1008.4
20260503212005 15 319 0.0 1.6 0.00 0.00 0.00 83 1008.4
20260503211006 15 323 0.0 0.0 0.00 0.00 0.00 82 1008.2
20260503210005 15 339 0.0 0.0 0.00 0.00 0.00 82 1008.1
20260503204006 15 330 0.0 0.0 0.00 0.00 0.00 79 1008.0
20260503203005 15 297 0.0 9.7 0.00 0.00 0.00 78 1007.8
20260503202005 15 338 0.0 0.0 0.00 0.00 0.00 79 1007.7
20260503201005 15 331 0.0 9.7 0.00 0.00 0.00 80 1007.5
20260503200005 15 292 0.0 1.6 0.00 0.00 0.00 80 1007.3
20260503195005 16 296 0.0 12.9 0.00 0.00 0.00 79 1007.2
20260503194005 16 331 6.4 9.7 0.00 0.00 0.00 79 1007.2
20260503193005 16 302 0.0 14.5 0.00 0.00 0.00 79 1007.2
20260503192005 16 280 9.7 16.1 0.00 0.00 0.00 78 1006.9
20260503191006 17 292 9.7 12.9 0.00 0.00 0.00 74 1006.8
20260503190005 17 280 9.7 16.1 0.00 0.00 0.00 72 1006.7
20260503185005 18 292 14.5 16.1 0.00 0.00 0.00 67 1006.6
20260503184005 18 270 12.9 16.1 0.00 0.00 0.00 65 1006.6
20260503183005 18 321 14.5 19.3 0.00 0.08 0.00 65 1006.6
20260503182006 18 295 14.5 19.3 0.00 0.18 0.00 66 1006.5
20260503181005 18 258 12.9 22.5 0.00 0.20 0.00 66 1006.7
20260503175005 18 304 14.5 19.3 0.00 0.23 0.00 66 1006.7
20260503174005 18 343 16.1 20.9 0.00 0.23 0.00 65 1006.6
20260503173005 18 305 17.7 22.5 0.00 0.23 0.00 66 1006.5
20260503172005 19 292 19.3 25.7 0.00 0.23 0.00 68 1006.4
20260503151005 20 280 12.9 20.9 0.00 0.23 0.00 62 1006.1
20260503131006 21 257 11.3 14.5 0.00 0.41 0.00 59 1006.9
20260503081004 16 198 3.2 8.0 0.00 0.41 0.00 90 1008.2
20260503072005 14 270 0.0 0.0 0.00 0.41 0.00 99 1007.9
20260503071005 14 270 0.0 0.0 0.00 0.41 0.00 99 1007.8
20260503055004 12 270 0.0 0.0 0.00 0.41 0.00 99 1007.5
20260503053005 12 338 0.0 0.0 0.00 0.41 0.00 99 1007.5
20260503052006 12 345 0.0 0.0 0.00 0.41 0.00 99 1007.5
20260503051005 12 0 0.0 0.0 0.00 0.41 0.00 99 1007.4
20260503050006 12 45 0.0 0.0 0.00 0.41 0.00 99 1007.4
20260503044005 12 0 0.0 0.0 0.00 0.41 0.00 99 1007.3
20260503043005 12 45 0.0 0.0 0.00 0.41 0.00 99 1007.4
20260503042006 12 292 0.0 0.0 0.00 0.41 0.00 99 1007.3
20260503040006 12 335 0.0 0.0 0.00 0.41 0.00 99 1007.5
20260503035007 12 292 0.0 0.0 0.00 0.41 0.00 99 1007.5
20260503034005 12 270 0.0 0.0 0.00 0.41 0.00 99 1007.4
20260503033005 12 112 0.0 0.0 0.00 0.41 0.00 99 1007.4
20260503031005 12 180 0.0 0.0 0.00 0.41 0.00 99 1007.7
20260503030005 12 225 0.0 0.0 0.00 0.41 0.00 99 1007.6
20260503025005 13 180 0.0 0.0 0.00 0.41 0.00 99 1007.6
20260503022005 13 173 0.0 0.0 0.00 0.41 0.00 99 1007.9
20260503021005 13 202 0.0 0.0 0.00 0.41 0.00 99 1007.9